Météo par heure à Junín

Ce jour, 20 Juin, Dimanche

Heure Température Précipitation Vent Pression Humidité
00:00 +15°C° 2.1 mm 0 m/s 604 mmHg 99%
01:00 +15°C° 0 mm 0 m/s 604 mmHg 99%
02:00 +15°C° 1.5 mm 0 m/s 604 mmHg 99%
03:00 +15°C° 1.5 mm 0 m/s 604 mmHg 98%
04:00 +15°C° 1.5 mm 0 m/s 604 mmHg 98%
05:00 +15°C° 0.2 mm 0 m/s 604 mmHg 98%
06:00 +15°C° 0.2 mm 0 m/s 605 mmHg 97%
07:00 +16°C° 0 mm 1 m/s 605 mmHg 97%
08:00 +16°C° 0.2 mm 1 m/s 605 mmHg 96%
09:00 +18°C° 0.2 mm 1 m/s 606 mmHg 95%
10:00 +18°C° 0.2 mm 1 m/s 606 mmHg 94%
11:00 +18°C° 0.5 mm 1 m/s 605 mmHg 95%
12:00 +18°C° 0.5 mm 1 m/s 605 mmHg 95%
13:00 +18°C° 0.5 mm 1 m/s 604 mmHg 96%
14:00 +16°C° 3.5 mm 1 m/s 604 mmHg 97%
15:00 +16°C° 3.5 mm 1 m/s 604 mmHg 97%
16:00 +16°C° 3.5 mm 1 m/s 604 mmHg 98%
17:00 +15°C° 1.3 mm 1 m/s 604 mmHg 98%
18:00 +15°C° 1.3 mm 1 m/s 604 mmHg 98%
19:00 +15°C° 1.3 mm 1 m/s 605 mmHg 98%
20:00 +15°C° 0.1 mm 1 m/s 605 mmHg 97%
21:00 +15°C° 0.1 mm 1 m/s 605 mmHg 97%
22:00 +15°C° 0.1 mm 1 m/s 606 mmHg 97%
23:00 +15°C° 0.2 mm 1 m/s 605 mmHg 97%

Demain, 21 Juin, Lundi

Heure Température Précipitation Vent Pression Humidité
00:00 +15°C° 0.2 mm 1 m/s 605 mmHg 97%
01:00 +15°C° 0.2 mm 1 m/s 604 mmHg 98%
02:00 +15°C° 0.2 mm 1 m/s 604 mmHg 98%
03:00 +15°C° 0.2 mm 1 m/s 604 mmHg 98%
04:00 +14°C° 0.2 mm 1 m/s 604 mmHg 98%
05:00 +15°C° 0.1 mm 1 m/s 604 mmHg 97%
06:00 +15°C° 0.1 mm 1 m/s 605 mmHg 97%
07:00 +14°C° 0.1 mm 0 m/s 605 mmHg 96%
08:00 +18°C° 0.3 mm 1 m/s 606 mmHg 89%
09:00 +19°C° 0.3 mm 1 m/s 606 mmHg 82%
10:00 +19°C° 0.3 mm 2 m/s 607 mmHg 75%
11:00 +20°C° 0.4 mm 2 m/s 606 mmHg 73%
12:00 +20°C° 0.4 mm 2 m/s 606 mmHg 71%
13:00 +21°C° 0.4 mm 2 m/s 605 mmHg 69%
14:00 +20°C° 0.2 mm 2 m/s 605 mmHg 70%
15:00 +20°C° 0.2 mm 2 m/s 604 mmHg 72%
16:00 +20°C° 0.2 mm 2 m/s 604 mmHg 73%
17:00 +19°C° 0.1 mm 1 m/s 604 mmHg 81%
18:00 +16°C° 0.1 mm 1 m/s 604 mmHg 88%
19:00 +14°C° 0.1 mm 0 m/s 604 mmHg 96%
20:00 +14°C° 0.1 mm 0 m/s 604 mmHg 96%
21:00 +14°C° 0.1 mm 1 m/s 604 mmHg 95%
22:00 +14°C° 0.1 mm 1 m/s 605 mmHg 94%
23:00 +14°C° 0.2 mm 1 m/s 604 mmHg 95%

Après-demain, 22 Juin, Mardi

Heure Température Précipitation Vent Pression Humidité
00:00 +13°C° 0.2 mm 0 m/s 604 mmHg 95%
01:00 +14°C° 0.2 mm 0 m/s 604 mmHg 96%
02:00 +14°C° 0.8 mm 0 m/s 604 mmHg 96%
03:00 +14°C° 0.8 mm 0 m/s 604 mmHg 97%
04:00 +14°C° 0.8 mm 0 m/s 604 mmHg 98%
05:00 +14°C° 0.7 mm 0 m/s 604 mmHg 98%
06:00 +14°C° 0.7 mm 0 m/s 604 mmHg 98%
07:00 +14°C° 0.7 mm 0 m/s 605 mmHg 98%
08:00 +14°C° 0.6 mm 0 m/s 605 mmHg 98%
09:00 +15°C° 0.6 mm 0 m/s 605 mmHg 98%
10:00 +15°C° 0.6 mm 0 m/s 606 mmHg 97%
11:00 +18°C° 0.4 mm 1 m/s 605 mmHg 94%
12:00 +18°C° 0.4 mm 1 m/s 605 mmHg 92%
13:00 +19°C° 0.4 mm 1 m/s 605 mmHg 89%
14:00 +19°C° 0.6 mm 1 m/s 605 mmHg 88%
15:00 +19°C° 0.6 mm 1 m/s 604 mmHg 88%
16:00 +19°C° 0.6 mm 1 m/s 604 mmHg 87%
17:00 +18°C° 0.1 mm 1 m/s 604 mmHg 90%
18:00 +16°C° 0.1 mm 1 m/s 604 mmHg 92%
19:00 +15°C° 0.1 mm 1 m/s 604 mmHg 95%
20:00 +14°C° 0 mm 1 m/s 604 mmHg 95%
21:00 +14°C° 0 mm 1 m/s 604 mmHg 96%
22:00 +13°C° 0 mm 1 m/s 605 mmHg 96%
23:00 +13°C° 0 mm 1 m/s 604 mmHg 96%

23 Juin, Mercredi

Heure Température Précipitation Vent Pression Humidité
00:00 +13°C° 0 mm 1 m/s 604 mmHg 96%
01:00 +13°C° 0 mm 1 m/s 604 mmHg 96%
02:00 +13°C° 0 mm 1 m/s 604 mmHg 95%
03:00 +13°C° 0 mm 1 m/s 603 mmHg 94%
04:00 +14°C° 0 mm 1 m/s 603 mmHg 93%
05:00 +14°C° 0 mm 1 m/s 604 mmHg 93%
06:00 +14°C° 0 mm 1 m/s 604 mmHg 93%
07:00 +14°C° 0 mm 0 m/s 605 mmHg 92%
08:00 +16°C° 0.2 mm 1 m/s 605 mmHg 90%
09:00 +18°C° 0.2 mm 1 m/s 605 mmHg 88%
10:00 +18°C° 0.2 mm 1 m/s 606 mmHg 87%
11:00 +19°C° 0.5 mm 1 m/s 605 mmHg 86%
12:00 +19°C° 0.5 mm 1 m/s 605 mmHg 86%
13:00 +20°C° 0.5 mm 1 m/s 605 mmHg 86%
14:00 +19°C° 0.6 mm 1 m/s 604 mmHg 88%
15:00 +19°C° 0.6 mm 1 m/s 604 mmHg 91%
16:00 +19°C° 0.6 mm 1 m/s 604 mmHg 94%
17:00 +18°C° 0.2 mm 1 m/s 604 mmHg 95%
18:00 +16°C° 0.2 mm 1 m/s 604 mmHg 97%
19:00 +15°C° 0.2 mm 1 m/s 604 mmHg 98%
20:00 +15°C° 0 mm 1 m/s 604 mmHg 98%
21:00 +15°C° 0 mm 1 m/s 604 mmHg 97%
22:00 +15°C° 0 mm 1 m/s 604 mmHg 97%
23:00 +15°C° 0 mm 1 m/s 604 mmHg 96%

24 Juin, Jeudi

Heure Température Précipitation Vent Pression Humidité
00:00 +14°C° 0 mm 1 m/s 604 mmHg 95%
01:00 +14°C° 0 mm 1 m/s 603 mmHg 95%
02:00 +14°C° 0 mm 1 m/s 603 mmHg 95%
03:00 +14°C° 0 mm 1 m/s 603 mmHg 95%
04:00 +13°C° 0 mm 1 m/s 603 mmHg 94%
05:00 +13°C° 0 mm 0 m/s 603 mmHg 93%
06:00 +14°C° 0 mm 0 m/s 604 mmHg 92%
07:00 +14°C° 0 mm 0 m/s 604 mmHg 91%
08:00 +16°C° 0.2 mm 1 m/s 605 mmHg 88%
09:00 +18°C° 0.2 mm 1 m/s 605 mmHg 85%
10:00 +19°C° 0.2 mm 1 m/s 605 mmHg 83%
11:00 +20°C° 0.6 mm 1 m/s 605 mmHg 81%
12:00 +19°C° 0.6 mm 2 m/s 605 mmHg 80%
13:00 +20°C° 0.6 mm 2 m/s 604 mmHg 79%
14:00 +19°C° 0.5 mm 2 m/s 604 mmHg 82%
15:00 +20°C° 0.5 mm 1 m/s 603 mmHg 85%
16:00 +19°C° 0.5 mm 1 m/s 603 mmHg 88%
17:00 +18°C° 0.2 mm 1 m/s 603 mmHg 90%
18:00 +16°C° 0.2 mm 1 m/s 603 mmHg 93%
19:00 +14°C° 0.2 mm 0 m/s 603 mmHg 95%
20:00 +14°C° 0 mm 0 m/s 604 mmHg 95%
21:00 +14°C° 0 mm 0 m/s 604 mmHg 95%
22:00 +14°C° 0 mm 0 m/s 604 mmHg 94%
23:00 +14°C° 0 mm 1 m/s 604 mmHg 94%

25 Juin, Vendredi

Heure Température Précipitation Vent Pression Humidité
00:00 +14°C° 0 mm 1 m/s 603 mmHg 94%
01:00 +14°C° 0 mm 1 m/s 603 mmHg 95%
02:00 +13°C° 0 mm 1 m/s 603 mmHg 95%
03:00 +13°C° 0 mm 1 m/s 603 mmHg 95%
04:00 +13°C° 0 mm 1 m/s 602 mmHg 96%
05:00 +13°C° 0 mm 1 m/s 603 mmHg 94%
06:00 +14°C° 0 mm 1 m/s 603 mmHg 93%
07:00 +14°C° 0 mm 0 m/s 604 mmHg 91%
08:00 +16°C° 0.1 mm 1 m/s 604 mmHg 89%
09:00 +18°C° 0.1 mm 1 m/s 605 mmHg 87%
10:00 +19°C° 0.1 mm 1 m/s 605 mmHg 84%
11:00 +19°C° 0.2 mm 1 m/s 605 mmHg 85%
12:00 +19°C° 0.2 mm 1 m/s 604 mmHg 85%
13:00 +19°C° 0.2 mm 1 m/s 604 mmHg 86%
14:00 +19°C° 0.3 mm 1 m/s 604 mmHg 83%
15:00 +20°C° 0.3 mm 1 m/s 603 mmHg 81%
16:00 +19°C° 0.3 mm 2 m/s 603 mmHg 78%
17:00 +19°C° 0.1 mm 1 m/s 603 mmHg 84%
18:00 +16°C° 0.1 mm 1 m/s 603 mmHg 90%
19:00 +14°C° 0.1 mm 0 m/s 603 mmHg 96%
20:00 +14°C° 0.1 mm 0 m/s 603 mmHg 97%
21:00 +14°C° 0.1 mm 0 m/s 604 mmHg 97%
22:00 +13°C° 0.1 mm 0 m/s 604 mmHg 97%
23:00 +14°C° 0 mm 1 m/s 604 mmHg 97%
Voir plus

Nous avons besoin de votre consentement

Meteoprog et ses fournisseurs de services peuvent stocker et accéder à des données personnelles telles que des cookies, des identifiants d'appareils ou d'autres technologies similaires sur votre appareil et traiter ces données pour personnaliser le contenu et les publicités, ainsi que pour fournir des fonctionnalités de médias sociaux et analyser le trafic.

  • Stocker et/ou accéder à des informations sur votre appareil

    Des cookies, des identifiants d'appareils ou d'autres informations peuvent être stockés ou accessibles sur votre appareil aux fins indiquées ci-dessus.

  • Annonces et contenus personnalisés, mesure des annonces et des contenus, connaissance de l'audience et développement de produits

    Les annonces et le contenu peuvent être personnalisés en fonction d'un profil. D'autres données peuvent être ajoutées pour mieux personnaliser les annonces et le contenu. Les performances des publicités et du contenu peuvent être mesurées. Il est possible d'obtenir des informations sur le public qui a vu les publicités et le contenu. Ces données peuvent être utilisées pour développer ou améliorer l'expérience de l'utilisateur, les systèmes et les logiciels.

En cliquant sur "J'accepte", vous autorisez l'utilisation de cookies, des identifiants d'appareils, des balises web ou d'autres technologies similaires. Vos paramètres peuvent être modifiés dans le navigateur de votre appareil.

Dans certains cas, des intérêts légitimes peuvent être invoqués plutôt qu'un consentement. Vous pouvez en savoir plus à ce sujet dans notre Politique de confidentialité et de cookies.